Weather History for KPLN - March, 2013

Change the Weather History Date:

Monday, March 11, 2013

  Actual Average Record
Temperature  
Mean Temperature 40 °F -  
Max Temperature 50 °F 34 °F 68 °F (1973)
Min Temperature 33 °F 12 °F -18 °F (1960)
Degree Days  
Heating Degree Days 24    
Moisture  
Dew Point 36 °F    
Average Humidity 92    
Maximum Humidity 100    
Minimum Humidity 74    
Precipitation  
Precipitation 0.40 in - - ()
Sea Level Pressure  
Sea Level Pressure 29.54 in    
Wind  
Wind Speed 6 mph (SE)    
Max Wind Speed 18 mph    
Max Gust Speed 22 mph    
Visibility 4 miles    
Events Fog , Rain , Snow    
Averages and records for this station are not official NWS values.
T = Trace of Precipitation, MM = Missing Value Source: NWS Daily Summary

Daily Weather History Graph

Daily Weather History Graph

Search for Another Location

Airport or City:

Trip Planner

Search our weather history database for the weather conditions in past years. The results will help you decide how hot, cold, wet, or windy it might be!

Date:

Astronomy

Mar. 11, 2013 Rise Set
Actual Time 7:58 AM EDT 7:40 PM EDT
Civil Twilight 7:29 AM EDT 8:09 PM EDT
Nautical Twilight 6:54 AM EDT 8:44 PM EDT
Astronomical Twilight 6:20 AM EDT 9:19 PM EDT
Moon 7:30 AM EDT (3/11) 7:54 PM EDT (3/11)
Length of Visible Light 12h 40m
Length of Day
11h 41m
Waning Crescent, 0% of the Moon is Illuminated
Mar 11
Waning Crescent
Mar 11
New
Mar 19
First Quarter
Mar 27
Full
Apr 3
Last Quarter

Hourly Weather History & Observations

Time (EDT) Temp. Windchill Dew Point Humidity Pressure Visibility Wind Dir Wind Speed Gust Speed Precip Events Conditions
1:54 AM 35.1 °F 28.6 °F 34.0 °F 96% 29.79 in 8.0 mi East 8.1 mph - 0.06 in Rain Light Rain
2:54 AM 36.0 °F 25.6 °F 34.0 °F 93% 29.75 in 4.0 mi East 18.4 mph 21.9 mph 0.04 in Rain Rain
3:54 AM 36.0 °F 28.5 °F 33.1 °F 89% 29.72 in 10.0 mi ESE 10.4 mph - 0.09 in Rain Light Rain
4:23 AM 35.6 °F 30.7 °F 33.8 °F 93% 29.67 in 9.0 mi ESE 5.8 mph - 0.00 in Rain Light Rain
4:54 AM 36.0 °F 30.3 °F 34.0 °F 93% 29.68 in 10.0 mi ESE 6.9 mph - 0.01 in   Overcast
5:54 AM 36.0 °F 29.0 °F 34.0 °F 93% 29.64 in 5.0 mi ESE 9.2 mph - N/A   Overcast
6:54 AM 36.0 °F 31.1 °F 35.1 °F 97% 29.63 in 4.0 mi ESE 5.8 mph - N/A   Overcast
7:07 AM 35.6 °F 29.9 °F 33.8 °F 93% 29.61 in 2.5 mi ESE 6.9 mph - N/A   Overcast
7:50 AM 35.6 °F 30.7 °F 33.8 °F 93% 29.59 in 1.0 mi SE 5.8 mph - N/A   Overcast
7:54 AM 36.0 °F 30.3 °F 34.0 °F 93% 29.62 in 1.0 mi SSE 6.9 mph - N/A   Overcast
8:09 AM 35.6 °F 30.7 °F 35.6 °F 100% 29.60 in 2.0 mi SE 5.8 mph - N/A   Overcast
8:54 AM 37.0 °F 32.4 °F 35.1 °F 93% 29.61 in 2.0 mi SE 5.8 mph - N/A   Overcast
9:03 AM 35.6 °F 29.9 °F 33.8 °F 93% 29.59 in 1.5 mi SSE 6.9 mph - N/A   Overcast
9:13 AM 37.4 °F 32.1 °F 35.6 °F 93% 29.59 in 2.5 mi SSE 6.9 mph - N/A   Overcast
9:54 AM 37.0 °F 33.3 °F 35.1 °F 93% 29.61 in 2.5 mi SE 4.6 mph - N/A   Overcast
10:02 AM 37.4 °F 33.8 °F 35.6 °F 93% 29.60 in 2.5 mi SSE 4.6 mph - N/A   Overcast
10:31 AM 37.4 °F 34.9 °F 35.6 °F 93% 29.60 in 1.5 mi SSE 3.5 mph - 0.00 in   Overcast
10:51 AM 37.4 °F - 35.6 °F 93% 29.58 in 0.8 mi Calm Calm - 0.00 in Rain Light Rain
10:54 AM 37.0 °F 34.5 °F 36.0 °F 96% 29.61 in 0.8 mi SE 3.5 mph - 0.00 in Rain Light Rain
11:09 AM 37.4 °F - 35.6 °F 93% 29.57 in 0.2 mi Calm Calm - 0.00 in Fog Fog
11:28 AM 35.6 °F 30.7 °F 35.6 °F 100% 29.57 in 0.5 mi SE 5.8 mph - 0.00 in Fog Fog
11:49 AM 37.4 °F 33.8 °F 37.4 °F 100% 29.57 in 1.2 mi SSE 4.6 mph - 0.00 in   Overcast
11:54 AM 39.0 °F 36.8 °F 37.0 °F 93% 29.59 in 1.8 mi SSE 3.5 mph - 0.00 in   Overcast
12:08 PM 39.2 °F - 37.4 °F 93% 29.56 in 1.5 mi Calm Calm - N/A   Overcast
12:17 PM 39.2 °F - 37.4 °F 93% 29.56 in 1.5 mi Calm Calm - N/A   Overcast
12:27 PM 39.2 °F - 37.4 °F 93% 29.56 in 0.5 mi Calm Calm - N/A Fog Fog
12:49 PM 39.2 °F - 37.4 °F 93% 29.54 in 0.2 mi Calm Calm - N/A Fog Fog
12:54 PM 39.9 °F - 37.9 °F 93% 29.56 in 0.2 mi Calm Calm - N/A Fog Fog
1:13 PM 41.0 °F - 39.2 °F 93% 29.54 in 1.0 mi Calm Calm - N/A   Overcast
1:17 PM 42.8 °F - 39.2 °F 87% 29.54 in 3.0 mi Calm Calm - N/A   Overcast
1:41 PM 42.8 °F - 39.2 °F 87% 29.53 in 2.5 mi Calm Calm - N/A   Overcast
2:36 PM 46.4 °F 43.5 °F 41.0 °F 81% 29.51 in 10.0 mi South 5.8 mph - N/A   Overcast
2:54 PM 48.9 °F - 42.1 °F 77% 29.52 in 10.0 mi Variable 3.5 mph - N/A   Overcast
3:54 PM 48.9 °F - 41.0 °F 74% 29.49 in 10.0 mi Variable 3.5 mph - N/A   Overcast
4:54 PM 44.1 °F 40.8 °F 39.9 °F 85% 29.47 in 10.0 mi NW 5.8 mph - N/A   Overcast
5:13 PM 39.2 °F 32.5 °F 37.4 °F 93% 29.45 in 8.0 mi North 10.4 mph - N/A   Overcast
5:26 PM 39.2 °F 33.0 °F 37.4 °F 93% 29.45 in 4.0 mi North 9.2 mph - N/A   Overcast
5:30 PM 39.2 °F 34.2 °F 37.4 °F 93% 29.45 in 1.5 mi North 6.9 mph - N/A   Overcast
5:39 PM 39.2 °F 34.2 °F 37.4 °F 93% 29.44 in 0.5 mi North 6.9 mph - N/A Fog Fog
5:46 PM 39.2 °F 34.2 °F 37.4 °F 93% 29.45 in 0.2 mi NNW 6.9 mph - N/A Fog Fog
5:54 PM 39.0 °F 35.7 °F 37.0 °F 93% 29.46 in 0.2 mi North 4.6 mph - 0.00 in Fog , Rain Light Rain
6:25 PM 37.4 °F 31.4 °F 35.6 °F 93% 29.44 in 0.5 mi WNW 8.1 mph - 0.00 in Fog Fog
6:54 PM 37.0 °F 31.6 °F 35.1 °F 93% 29.46 in 1.0 mi NW 6.9 mph - 0.00 in Rain Light Rain
7:06 PM 35.6 °F 29.9 °F 35.6 °F 100% 29.43 in 2.0 mi NNW 6.9 mph - 0.00 in Rain Light Rain
7:50 PM 35.6 °F 30.7 °F 35.6 °F 100% 29.42 in 2.0 mi North 5.8 mph - 0.01 in Rain Light Rain
7:54 PM 37.0 °F 33.3 °F 35.1 °F 93% 29.44 in 2.5 mi NNW 4.6 mph - 0.01 in Rain Light Rain
8:03 PM 37.4 °F 32.8 °F 35.6 °F 93% 29.42 in 5.0 mi NNW 5.8 mph - 0.00 in Rain Light Rain
8:54 PM 37.0 °F 32.4 °F 35.1 °F 93% 29.43 in 6.0 mi WNW 5.8 mph - 0.01 in Rain Light Rain
9:54 PM 36.0 °F 29.0 °F 34.0 °F 93% 29.43 in 5.0 mi WNW 9.2 mph - 0.05 in Rain Rain
10:50 PM 35.6 °F 28.6 °F 33.8 °F 93% 29.42 in 8.0 mi West 9.2 mph - 0.08 in Rain Light Rain
10:54 PM 35.1 °F 28.6 °F 33.1 °F 92% 29.44 in 8.0 mi West 8.1 mph - 0.09 in Rain Light Rain
11:33 PM 33.8 °F 28.6 °F 32.0 °F 93% 29.43 in 4.0 mi West 5.8 mph - 0.03 in Snow Light Snow
11:41 PM 33.8 °F 28.6 °F 30.2 °F 87% 29.43 in 2.5 mi WSW 5.8 mph - 0.03 in Snow Light Snow
11:54 PM 33.1 °F 28.7 °F 30.9 °F 92% 29.46 in 2.0 mi WSW 4.6 mph - 0.04 in Snow Light Snow